Location: Orange Harbor Mobile Home Park
(26.6923°N, 81.7937°W)
Time: 06:55:16
(UTC+00:00)

Milstar 3 Cent rocket - Pass Details

Date: 19 September 2020
Orbit: 707 x 5145 km, 28.3° (Epoch: 29 October)

Event Time Altitude Azimuth Distance (km) Brightness Sun altitude
Rises 00:22:16 0° 245° (WSW) 5,222 7.3 -13.0°
Reaches altitude 10° 00:26:32 10° 242° (WSW) 3,619 6.3 -14.0°
Maximum altitude 00:34:26 60° 164° (SSE) 1,057 2.5 -15.7°
Enters shadow 00:37:18 26° 93° (E) 1,533 2.9 -16.3°
